Temperature
24 24 23 23 26 26 26 29 32 32 32 32 31 31 29 28 27 25 24 24 22 22 22 21 21 20 20 19 19 19 19 19 19 19 19 18 18 18 18 18 18 18 18 18 18 18 18 18 18
24 23 24 26 27 27 28 31 31 32 32 31 31 30 29 27 26 25 24 23 22 22 22 21 21 20 20 19 19 19 19 19 19 19 19 18 18 18 18 18 18 18 18 18 18 18 18 18 18
24 24 27 29 28 29 30 32 32 32 32 31 31 30 28 26 26 25 24 23 22 21 21 21 21 20 20 19 19 19 19 19 19 19 18 18 18 18 18 18 18 18 18 18 18 18 18 18 18
23 26 28 29 30 32 33 33 33 32 31 31 31 29 26 25 25 24 23 22 21 21 21 21 21 20 20 19 19 19 19 19 19 19 18 18 18 18 18 18 18 18 18 18 18 18 18 18 18
25 28 29 29 30 33 34 33 33 32 32 31 30 27 25 24 24 24 23 22 21 20 21 21 21 20 20 19 19 19 19 19 19 18 18 18 18 18 18 18 18 18 18 18 18 18 18 18 18
27 30 29 30 32 33 34 33 32 32 31 31 30 28 24 24 23 23 23 22 21 20 20 21 20 20 20 19 19 19 19 19 19 19 18 18 18 18 18 18 18 18 18 18 18 18 18 18 18
28 29 30 31 32 33 33 33 33 32 31 31 30 27 24 24 23 23 23 23 22 20 20 21 20 20 20 19 19 19 19 19 19 19 18 18 18 18 18 18 18 18 18 18 18 18 18 18 18
29 30 30 31 32 32 33 32 32 31 31 30 29 28 24 23 23 23 23 23 22 20 20 20 20 20 19 19 19 19 19 19 19 19 19 18 18 18 18 18 18 18 18 18 18 18 18 18 18
30 30 29 32 32 33 33 32 32 31 30 29 28 27 24 23 23 23 23 22 21 20 20 19 19 19 19 19 19 19 19 19 19 19 19 18 18 18 18 18 18 18 18 18 18 18 18 18 18
30 30 31 33 33 33 33 32 32 31 30 27 26 25 23 23 23 22 22 22 21 20 20 19 19 19 18 18 19 19 18 19 19 18 18 18 18 18 18 18 18 18 18 18 18 18 18 18 18
32 31 32 33 33 32 32 32 31 31 29 27 25 24 23 23 22 22 22 22 21 20 20 19 19 19 19 18 19 18 18 18 18 18 18 18 18 18 18 18 18 18 18 18 18 18 18 17 17
32 32 32 32 32 32 32 32 31 30 28 26 25 23 23 22 22 22 21 21 20 20 20 19 19 19 19 18 18 18 18 18 18 18 18 18 18 18 18 18 18 18 18 17 17 18 17 17 17
32 32 32 32 32 32 31 31 30 29 27 25 24 23 22 22 21 21 21 21 20 20 20 19 19 19 19 18 18 18 18 18 18 18 18 18 18 17 18 18 17 17 17 17 17 17 17 17 18
32 33 32 32 32 31 31 30 29 28 26 25 24 23 22 21 21 21 20 20 20 19 19 19 19 19 19 19 18 18 18 18 18 18 18 18 18 18 18 18 17 17 17 17 17 17 17 17 17
32 32 31 31 31 31 31 29 28 27 26 25 24 23 22 21 20 20 20 20 19 19 19 19 18 18 18 18 18 18 18 18 18 18 18 18 17 17 17 17 17 17 17 17 17 17 17 17 17
31 30 29 30 31 31 30 28 28 27 26 25 24 23 21 20 20 20 19 19 19 19 19 18 18 18 18 18 18 18 18 18 18 18 18 17 17 17 17 17 17 17 17 17 17 17 17 17 17
30 29 29 30 31 31 31 29 28 27 26 25 24 23 21 20 20 19 19 19 19 19 18 18 18 18 18 18 18 18 18 17 17 17 17 17 17 17 17 17 17 17 16 16 16 16 16 16 17
30 30 31 31 31 31 31 30 29 28 27 26 24 23 21 20 20 19 19 18 18 18 18 18 18 18 18 18 18 17 17 17 17 17 17 17 17 17 17 17 17 16 16 16 16 16 16 16 16
31 31 31 31 32 31 30 30 29 28 27 26 25 23 21 20 19 19 18 18 18 18 18 18 18 18 18 18 17 17 17 17 17 17 17 17 17 17 16 16 16 16 16 16 16 16 16 16 16
31 31 31 31 32 31 30 30 29 28 27 26 24 23 22 20 19 19 18 18 18 18 18 18 18 18 18 18 18 17 17 17 17 17 17 17 16 16 16 16 16 16 16 16 15 16 16 16 16
31 31 31 31 31 31 30 29 28 27 27 26 24 23 22 21 20 19 18 18 18 18 17 18 17 17 17 17 17 17 17 17 17 17 17 16 16 16 16 16 16 16 15 15 15 15 15 15 16
30 31 31 31 30 29 29 27 26 26 26 26 24 23 22 21 20 19 18 18 18 18 17 17 17 17 17 17 17 17 17 17 17 17 17 16 16 16 16 16 16 16 15 15 15 15 15 15 15
31 32 31 30 28 27 27 27 27 26 25 26 25 24 23 22 21 19 19 18 18 18 18 17 17 18 17 17 17 18 18 17 17 17 17 16 16 16 16 15 15 15 15 15 15 15 15 15 15
32 31 30 28 26 23 24 25 26 26 26 26 25 24 23 22 21 20 19 19 18 18 18 17 18 18 17 17 17 17 17 17 17 17 17 16 16 16 16 15 15 15 15 15 15 15 14 14 15
31 29 27 25 23 23 24 26 26 28 28 27 26 25 24 23 21 20 20 19 18 18 18 17 18 18 17 17 17 17 17 17 17 17 17 16 16 16 16 15 15 15 15 14 14 14 14 14 14
31 30 27 26 25 25 25 26 27 29 29 27 26 25 24 23 22 21 20 19 19 18 18 18 18 18 17 17 17 17 17 17 17 17 17 17 16 16 16 16 15 15 14 14 14 14 14 14 14
30 30 30 29 28 27 25 25 27 28 28 28 26 25 24 24 23 22 21 20 19 19 18 18 18 18 18 17 17 17 17 17 17 17 17 16 16 16 16 15 15 14 14 14 14 14 14 14 13
31 31 30 28 26 26 25 24 24 25 27 28 27 26 25 24 23 22 21 21 20 19 18 18 18 18 18 17 18 17 17 17 17 17 17 16 16 16 16 15 15 14 14 14 14 14 14 13 13
30 30 29 29 28 27 25 24 25 26 27 28 28 27 26 25 24 23 22 21 20 20 19 18 18 18 18 18 17 17 17 17 17 17 16 16 16 16 16 15 15 14 14 14 14 14 14 13 13
30 29 29 27 27 28 27 25 27 27 27 28 28 27 26 25 24 23 22 22 21 20 19 19 18 18 18 18 18 17 17 17 17 16 16 16 16 16 15 15 15 15 14 14 14 14 14 14 13
Wind_Speed
11 13 11 8 5 5 8 5 5 8 8 8 8 7 12 12 9 10 11 19 24 23 22 22 20 19 18 17 17 16 16 15 15 14 14 14 14 13 13 13 13 13 14 14 14 14 14 13 12
11 14 11 7 7 6 6 1 4 8 7 6 5 7 12 11 11 13 14 20 24 23 21 21 21 19 18 17 17 16 16 15 14 14 14 13 13 13 13 13 13 13 13 13 13 13 13 13 11
12 16 9 7 11 10 3 2 5 5 5 3 3 6 9 9 10 11 16 22 23 21 21 22 22 20 19 18 17 17 16 15 14 14 13 13 13 13 12 12 12 13 13 13 13 13 12 11 10
9 9 7 9 13 9 3 5 4 3 3 2 3 8 9 8 8 14 18 20 22 21 22 22 22 20 19 18 17 17 16 15 14 14 13 13 12 12 12 12 12 12 12 12 12 12 11 10 8
11 8 10 13 15 9 3 4 4 2 1 1 4 10 9 8 13 16 18 19 20 21 21 22 22 20 19 18 17 16 16 15 14 13 13 13 12 12 12 11 11 11 12 11 11 11 10 9 7
9 10 12 13 10 5 2 3 2 2 1 2 5 9 8 10 12 15 17 17 19 20 21 21 21 20 19 18 17 16 15 15 14 13 13 13 12 12 11 11 10 10 11 10 10 9 8 7 5
11 12 15 15 9 4 2 3 3 3 2 3 4 7 9 11 12 14 14 15 18 21 20 18 19 18 18 17 16 16 15 15 14 13 12 12 12 11 11 11 10 10 10 9 8 7 6 5 3
12 11 15 13 8 2 3 1 1 1 1 3 3 6 9 12 13 14 14 13 16 18 19 17 18 17 17 16 16 16 15 14 13 13 12 12 11 11 11 11 10 9 8 7 6 6 4 3 1
13 11 13 11 7 3 3 2 1 1 1 2 5 10 15 16 15 14 13 13 14 16 16 17 16 16 16 16 16 15 14 13 13 12 11 10 10 11 10 11 11 9 8 7 6 4 3 3 4
10 11 13 8 8 7 6 4 3 2 2 4 7 12 16 15 15 14 14 15 15 16 15 14 15 14 15 14 15 13 12 12 11 11 11 8 7 8 10 13 11 9 7 6 5 4 4 6 5
11 12 10 8 6 7 7 5 4 4 2 4 8 11 14 15 14 13 11 11 11 12 14 13 13 9 10 10 11 9 10 10 9 10 10 7 7 8 9 9 9 7 6 4 5 4 3 1 2
11 11 9 8 6 6 7 6 4 3 4 7 10 12 11 13 13 11 10 9 11 10 12 12 12 9 7 9 8 8 8 8 7 9 9 8 5 5 5 5 5 4 4 3 1 1 2 3 3
11 11 10 9 7 7 7 6 3 1 6 9 10 10 11 10 11 10 10 10 11 10 10 11 10 9 8 6 5 6 6 7 8 8 7 9 5 4 5 4 4 4 3 3 1 2 2 2 2
11 11 10 8 7 7 6 6 4 2 5 8 8 8 9 9 9 9 10 10 11 12 11 12 11 10 8 6 4 4 6 7 7 8 7 7 8 5 5 4 3 4 4 4 1 1 0 0 1
12 13 10 9 10 9 6 5 2 5 6 5 7 8 7 8 8 9 10 10 12 12 12 12 11 10 9 7 6 5 6 7 6 7 8 7 8 7 5 4 3 3 4 4 2 1 1 1 1
15 13 10 11 13 9 9 4 4 7 6 6 6 8 8 7 7 8 9 10 11 11 12 12 12 12 9 7 4 3 5 6 7 8 8 7 7 7 5 3 3 4 4 3 2 1 0 0 1
13 13 12 10 10 8 8 4 6 8 6 6 7 7 7 8 7 7 9 10 10 11 13 11 11 12 10 8 4 4 4 5 7 8 8 7 6 7 5 3 4 4 3 2 1 3 2 2 2
11 11 9 6 5 7 7 3 6 6 5 6 8 9 8 7 7 9 9 9 9 11 12 11 11 11 10 7 5 4 5 5 6 7 8 8 6 6 6 5 3 2 2 2 3 2 0 2 2
13 13 12 8 4 6 6 5 5 6 5 5 7 9 9 8 8 10 10 11 10 11 11 10 11 10 8 7 6 6 6 5 5 5 8 7 6 6 4 4 2 1 3 3 2 1 1 2 0
13 13 12 9 6 7 8 7 4 6 7 6 7 9 10 11 11 11 11 11 11 11 11 10 10 10 8 7 5 5 6 5 5 5 6 8 7 6 5 4 3 2 3 3 2 2 2 2 1
13 12 12 11 10 9 10 8 5 6 6 7 8 9 11 12 14 13 12 11 12 12 12 11 10 10 9 9 6 6 5 5 5 6 5 5 6 5 4 4 3 2 2 3 1 0 1 2 2
12 10 12 13 12 9 9 6 5 7 8 9 10 10 11 13 14 14 13 12 13 12 12 11 11 10 9 9 8 9 7 6 7 6 5 5 5 5 5 5 4 1 1 3 1 3 2 1 2
12 12 13 12 10 9 10 8 5 7 8 10 12 12 12 13 15 14 14 13 13 14 13 12 11 10 9 8 8 7 6 6 7 7 8 6 5 5 5 5 4 2 1 3 3 3 2 2 2
11 12 12 6 5 7 11 9 4 6 9 11 13 14 14 14 15 15 14 13 13 13 13 13 12 10 9 7 7 6 5 7 8 8 7 6 5 4 5 6 4 2 2 4 3 1 1 2 3
11 10 7 5 2 7 11 8 3 5 10 12 14 15 16 16 15 15 15 15 14 14 14 13 13 11 9 8 7 6 6 7 8 7 7 5 6 5 5 5 4 3 3 3 3 2 1 1 1
11 11 9 9 8 5 5 3 3 3 7 11 12 13 15 16 16 16 16 16 16 16 15 15 14 12 11 9 8 7 7 6 6 6 5 5 4 6 7 6 5 4 4 3 3 1 3 3 1
12 11 10 11 13 9 2 2 2 5 8 11 14 15 15 16 17 17 17 17 16 16 16 16 15 13 11 10 9 8 7 6 6 6 4 4 4 7 8 6 6 5 4 3 3 2 1 3 2
14 12 8 7 8 8 2 3 3 5 7 11 14 16 16 16 17 17 17 17 16 15 15 15 15 13 11 11 10 10 8 6 6 6 5 4 5 6 8 7 6 5 5 4 3 3 4 4 3
12 13 9 8 8 9 4 1 3 6 7 9 13 15 17 17 17 17 16 16 16 16 16 15 15 14 12 11 10 9 9 8 7 6 6 5 5 6 6 6 6 6 6 5 4 4 3 4 4
12 12 10 9 9 10 8 2 3 4 5 7 10 14 16 15 16 17 17 17 16 16 16 15 15 15 14 12 10 9 9 9 9 8 7 7 7 6 7 7 7 7 7 7 6 6 5 5 5
Wind_Direction
237 245 241 253 247 249 278 291 359 49 57 55 44 53 64 48 65 105 137 133 124 126 131 134 133 134 134 132 131 129 126 123 119 116 112 109 105 102 99 96 94 92 91 91 90 88 86 85 85
255 256 249 251 256 261 277 301 39 52 62 73 77 72 81 70 79 114 130 124 123 128 135 135 134 133 134 132 131 131 129 126 123 119 116 112 108 103 100 98 96 94 92 92 92 90 87 86 86
260 264 267 254 257 265 276 29 52 65 72 56 70 71 71 84 97 118 127 127 127 131 132 133 136 134 134 133 132 131 129 128 126 123 120 116 111 106 103 101 99 97 95 95 93 91 88 86 85
256 250 245 263 275 285 343 33 35 54 72 86 99 88 78 70 105 124 134 133 131 133 132 136 137 136 135 135 134 132 131 131 129 127 123 118 115 111 107 104 102 100 99 97 96 93 90 87 83
247 259 252 263 274 290 358 21 13 21 45 91 95 103 94 84 109 129 140 136 135 134 132 138 137 136 137 137 136 135 135 133 131 128 126 122 118 114 111 109 107 105 103 100 98 95 91 86 79
256 256 265 272 273 285 38 43 339 324 65 65 90 104 104 121 128 140 144 141 138 134 134 138 139 139 139 139 139 138 137 135 133 129 127 126 122 118 115 114 111 108 105 102 101 98 94 87 74
260 278 281 285 288 305 27 23 334 1 358 52 88 104 123 131 136 142 142 143 137 134 135 141 142 142 142 142 142 141 140 137 136 134 132 132 129 127 123 119 116 114 112 110 108 106 104 97 79
259 279 288 286 288 312 75 2 334 304 75 52 58 103 135 141 144 142 145 138 133 134 140 146 146 146 147 146 145 144 143 141 141 141 141 140 141 140 138 132 126 123 122 120 118 120 126 129 147
255 267 275 290 314 357 46 330 330 188 146 80 65 95 135 143 144 146 147 138 139 140 144 148 147 152 153 151 148 148 147 147 148 151 154 157 162 157 157 137 136 134 134 134 137 148 167 194 219
243 254 272 313 340 341 344 331 313 270 101 93 93 107 130 142 146 154 157 154 149 145 148 150 150 158 159 152 147 156 157 157 165 163 166 177 162 145 138 141 145 147 149 153 164 182 216 229 225
248 261 289 314 329 327 319 319 313 313 76 106 132 137 143 147 153 160 163 159 149 148 147 146 148 151 146 136 151 157 152 158 175 164 169 163 131 123 127 144 148 159 166 171 171 196 238 295 348
252 269 282 294 316 306 302 301 317 4 65 105 124 141 151 157 161 164 167 164 153 155 152 150 143 135 130 140 149 151 152 161 164 162 169 139 122 117 114 120 130 140 131 118 128 139 51 19 8
252 259 261 265 269 272 287 295 318 41 108 115 128 141 150 162 167 169 171 166 158 154 150 138 138 137 131 128 151 155 150 155 152 155 159 140 132 129 120 111 116 125 140 131 134 72 42 17 360
274 275 277 279 277 267 266 277 265 160 129 128 135 146 159 164 168 176 177 169 166 161 152 141 144 139 136 136 143 134 139 137 143 146 145 137 131 128 126 131 130 122 117 112 133 124 115 330 308
274 276 278 283 265 252 258 270 222 155 147 147 155 160 159 162 173 185 185 172 168 160 151 145 147 145 145 150 158 144 141 144 138 134 135 131 132 137 143 137 135 126 133 144 141 175 203 219 235
278 270 267 270 258 244 250 258 180 165 158 169 171 164 160 159 179 183 176 160 157 154 148 153 157 149 145 146 151 137 143 136 134 135 132 128 135 146 150 132 133 140 154 160 158 186 227 339 301
269 264 262 244 230 245 258 253 183 164 165 175 172 161 159 156 165 161 157 150 151 151 149 147 143 146 144 145 147 132 132 137 138 139 138 146 154 157 141 127 126 163 161 154 134 86 23 346 337
274 273 272 269 234 253 276 264 172 169 177 188 169 158 161 157 152 145 142 141 144 144 144 141 140 143 146 148 147 146 148 143 132 127 132 145 152 141 133 129 138 158 115 95 79 88 244 271 278
285 293 305 303 284 276 286 273 205 172 180 189 169 159 159 157 149 143 143 141 142 139 139 140 143 148 150 152 159 160 155 147 136 135 139 147 142 131 127 114 139 118 101 99 100 61 281 257 298
283 290 294 296 288 283 285 271 205 175 182 190 169 163 160 154 149 149 151 148 147 145 145 149 152 155 157 158 159 157 151 148 137 125 138 148 143 152 151 134 145 110 114 118 89 58 327 324 33
277 287 292 295 292 281 274 262 182 175 175 174 165 159 158 161 157 158 161 160 156 156 160 160 161 159 162 161 157 148 141 138 129 133 148 145 144 143 115 126 123 130 157 137 144 156 17 350 333
278 286 293 296 293 290 284 274 181 178 185 180 167 165 166 160 156 161 169 169 166 165 162 157 157 155 161 169 163 159 160 160 153 153 146 146 145 144 139 131 124 120 107 122 155 97 357 323 317
280 290 292 297 309 307 296 281 206 178 194 181 171 173 170 162 160 167 170 170 167 165 159 155 152 154 163 175 162 168 165 157 147 139 141 150 148 155 147 133 126 137 114 104 79 76 12 353 359
276 282 286 302 324 298 273 268 224 189 188 176 171 172 167 164 162 166 167 164 163 162 157 155 154 155 163 171 163 181 168 144 139 142 151 165 156 168 154 142 134 140 117 118 114 118 110 58 29
261 275 284 292 252 255 260 259 212 181 166 163 166 168 165 164 165 167 164 163 164 164 161 158 159 160 166 172 169 175 160 141 144 159 166 181 167 160 148 138 139 136 128 137 135 162 108 91 50
252 256 267 285 281 264 263 259 177 134 132 143 154 161 162 165 166 168 168 168 169 168 164 161 161 164 170 173 171 166 161 165 169 180 170 187 169 144 142 138 154 153 161 158 132 202 177 149 185
253 256 267 275 286 290 254 293 122 134 144 146 158 167 170 169 168 171 172 173 173 171 168 167 166 168 173 172 166 166 176 188 164 158 178 166 133 141 146 152 162 165 167 154 151 226 173 143 206
248 262 275 284 294 296 321 333 274 205 186 167 168 170 171 171 171 172 174 175 174 171 170 170 169 172 174 172 174 177 179 173 155 168 183 149 140 127 149 161 168 170 170 178 193 228 189 175 211
244 245 257 274 280 290 287 268 232 237 199 184 174 170 169 173 173 173 173 174 174 173 173 173 173 174 176 178 185 175 172 172 170 177 168 154 149 148 163 174 179 180 184 189 195 239 204 194 226
257 257 253 260 271 284 292 258 194 203 197 194 181 168 166 170 172 172 173 173 175 175 175 175 177 178 181 181 182 178 174 175 179 182 173 170 169 173 181 186 191 197 194 192 198 226 225 208 217
Height
1499 1498 1498 1500 1498 1498 1494 1478 1465 1465 1467 1470 1472 1474 1480 1486 1492 1504 1504 1506 1507 1510 1514 1519 1522 1526 1529 1533 1535 1537 1540 1542 1543 1545 1546 1548 1549 1550 1551 1552 1553 1554 1555 1556 1556 1557 1558 1559 1559
1499 1499 1501 1498 1495 1500 1491 1471 1469 1468 1471 1473 1475 1477 1481 1489 1494 1500 1503 1507 1508 1511 1515 1519 1523 1527 1530 1534 1536 1539 1541 1543 1545 1546 1548 1549 1551 1552 1553 1554 1555 1556 1557 1557 1558 1559 1560 1561 1562
1499 1499 1500 1491 1489 1489 1483 1468 1467 1468 1472 1474 1476 1479 1485 1493 1497 1501 1505 1507 1509 1512 1516 1520 1524 1528 1531 1534 1537 1540 1542 1544 1546 1548 1549 1551 1552 1554 1555 1556 1557 1558 1559 1559 1560 1561 1562 1563 1564
1500 1499 1496 1488 1485 1470 1466 1465 1466 1469 1473 1474 1476 1483 1489 1496 1499 1502 1505 1508 1510 1514 1517 1521 1525 1528 1532 1535 1538 1541 1543 1545 1547 1549 1551 1552 1554 1555 1556 1557 1559 1559 1560 1561 1562 1563 1564 1565 1566
1501 1497 1491 1488 1479 1465 1461 1464 1467 1470 1473 1475 1477 1485 1493 1498 1500 1503 1506 1509 1512 1515 1518 1522 1526 1530 1533 1536 1539 1542 1544 1546 1548 1550 1552 1554 1555 1557 1558 1559 1560 1561 1562 1563 1564 1565 1566 1567 1568
1498 1490 1491 1486 1473 1463 1462 1466 1469 1470 1473 1476 1479 1485 1495 1499 1501 1504 1507 1510 1513 1515 1519 1522 1526 1530 1534 1537 1540 1542 1545 1547 1549 1551 1553 1555 1556 1558 1559 1560 1561 1562 1563 1564 1566 1567 1568 1569 1570
1496 1489 1485 1477 1471 1466 1464 1467 1469 1471 1474 1477 1480 1486 1495 1499 1501 1504 1507 1511 1513 1516 1519 1523 1527 1531 1534 1538 1540 1543 1546 1548 1550 1552 1554 1556 1557 1559 1560 1562 1563 1564 1565 1566 1567 1568 1569 1570 1571
1492 1489 1484 1474 1470 1467 1465 1468 1470 1473 1476 1479 1481 1485 1494 1498 1501 1504 1508 1511 1514 1516 1520 1524 1527 1531 1534 1538 1541 1544 1546 1548 1551 1553 1555 1557 1558 1560 1561 1563 1564 1565 1566 1567 1568 1569 1571 1572 1572
1489 1490 1486 1473 1468 1465 1465 1468 1470 1473 1476 1479 1482 1486 1492 1497 1501 1505 1508 1512 1513 1516 1520 1524 1527 1531 1535 1538 1541 1544 1547 1549 1551 1554 1556 1558 1559 1561 1562 1563 1565 1566 1567 1568 1569 1570 1571 1572 1573
1485 1487 1478 1467 1465 1465 1466 1469 1470 1473 1476 1482 1486 1490 1494 1497 1500 1504 1507 1511 1512 1515 1520 1524 1527 1531 1535 1539 1541 1544 1547 1549 1552 1554 1556 1558 1560 1562 1563 1564 1566 1567 1568 1568 1569 1571 1572 1573 1574
1478 1477 1470 1467 1467 1468 1469 1470 1471 1473 1478 1483 1487 1491 1495 1497 1500 1503 1507 1510 1512 1515 1519 1524 1527 1532 1535 1538 1541 1544 1548 1549 1552 1554 1557 1559 1561 1563 1564 1565 1566 1567 1568 1569 1570 1571 1572 1573 1574
1475 1472 1470 1469 1469 1470 1470 1471 1472 1475 1480 1484 1486 1490 1494 1496 1499 1502 1505 1509 1512 1515 1520 1524 1526 1531 1535 1538 1541 1545 1547 1549 1552 1554 1557 1559 1561 1562 1563 1564 1565 1567 1568 1569 1569 1570 1571 1572 1573
1472 1470 1469 1468 1469 1469 1471 1471 1473 1477 1481 1484 1488 1491 1493 1496 1498 1501 1504 1507 1510 1514 1519 1522 1526 1531 1534 1537 1540 1544 1547 1549 1552 1554 1556 1558 1560 1562 1563 1564 1565 1566 1567 1568 1569 1570 1570 1571 1572
1469 1467 1466 1466 1467 1468 1469 1470 1473 1477 1481 1484 1487 1490 1492 1494 1497 1499 1502 1505 1508 1512 1517 1521 1526 1530 1533 1536 1539 1543 1546 1549 1551 1553 1555 1558 1559 1561 1562 1563 1565 1566 1567 1567 1568 1569 1569 1570 1571
1469 1468 1467 1467 1465 1466 1467 1470 1472 1476 1480 1484 1487 1489 1491 1493 1495 1497 1499 1501 1505 1510 1515 1520 1525 1528 1532 1535 1539 1542 1545 1548 1550 1552 1554 1557 1558 1560 1561 1563 1564 1565 1566 1567 1567 1568 1569 1569 1570
1468 1470 1475 1469 1464 1463 1467 1476 1472 1475 1478 1482 1485 1488 1489 1491 1493 1494 1496 1499 1504 1508 1513 1519 1524 1527 1531 1535 1539 1542 1545 1548 1550 1551 1553 1556 1557 1559 1560 1562 1563 1564 1565 1566 1567 1567 1568 1569 1569
1472 1476 1473 1466 1459 1458 1460 1468 1468 1471 1475 1479 1483 1486 1488 1490 1492 1493 1495 1498 1503 1506 1511 1517 1522 1526 1530 1534 1538 1541 1544 1547 1549 1551 1553 1554 1556 1558 1560 1561 1562 1564 1565 1566 1567 1566 1567 1568 1568
1474 1467 1463 1461 1455 1455 1457 1461 1463 1468 1471 1476 1479 1483 1487 1489 1491 1493 1495 1499 1502 1506 1511 1515 1520 1525 1530 1534 1538 1541 1544 1546 1549 1550 1552 1554 1556 1557 1559 1560 1562 1563 1564 1565 1565 1566 1566 1567 1567
1460 1460 1461 1457 1449 1453 1457 1459 1461 1464 1469 1473 1477 1481 1485 1488 1491 1493 1496 1499 1502 1507 1511 1515 1520 1525 1529 1533 1537 1540 1543 1546 1548 1550 1551 1553 1555 1556 1558 1560 1561 1562 1563 1564 1564 1565 1566 1567 1567
1457 1461 1460 1454 1448 1451 1456 1457 1457 1461 1466 1470 1474 1479 1482 1487 1490 1493 1497 1500 1503 1507 1510 1515 1520 1524 1529 1533 1537 1540 1543 1545 1547 1549 1551 1553 1554 1556 1558 1559 1560 1561 1562 1562 1563 1564 1564 1566 1566
1458 1460 1458 1456 1450 1448 1454 1459 1459 1460 1465 1469 1473 1477 1481 1485 1488 1492 1496 1500 1504 1507 1510 1515 1519 1524 1528 1532 1536 1539 1542 1545 1547 1548 1550 1552 1553 1555 1557 1558 1559 1560 1561 1561 1562 1562 1563 1564 1565
1460 1451 1451 1453 1458 1462 1459 1473 1465 1461 1464 1467 1471 1476 1479 1483 1487 1492 1496 1500 1503 1506 1510 1514 1518 1523 1528 1532 1535 1538 1541 1544 1546 1547 1549 1551 1552 1554 1555 1556 1557 1558 1559 1560 1561 1561 1562 1563 1564
1452 1447 1450 1453 1462 1469 1468 1471 1467 1460 1464 1464 1468 1473 1478 1482 1486 1491 1495 1499 1502 1506 1510 1514 1518 1522 1527 1531 1535 1538 1540 1543 1545 1547 1548 1550 1551 1553 1554 1555 1556 1557 1558 1558 1559 1560 1561 1562 1563
1446 1449 1451 1457 1471 1493 1481 1477 1471 1459 1458 1460 1464 1469 1475 1480 1485 1490 1494 1498 1502 1506 1510 1513 1517 1521 1526 1530 1533 1537 1539 1542 1543 1545 1547 1549 1550 1552 1553 1554 1554 1555 1556 1557 1557 1558 1560 1560 1561
1447 1459 1475 1485 1497 1495 1473 1470 1464 1448 1447 1453 1459 1465 1472 1478 1483 1488 1492 1496 1501 1505 1508 1512 1515 1520 1525 1529 1532 1535 1538 1540 1542 1544 1546 1548 1549 1550 1551 1553 1553 1554 1555 1555 1556 1558 1558 1559 1560
1447 1455 1477 1490 1487 1479 1471 1469 1457 1444 1446 1451 1458 1464 1470 1476 1481 1486 1491 1495 1499 1504 1507 1511 1514 1518 1523 1527 1530 1533 1536 1538 1541 1543 1545 1547 1549 1549 1550 1551 1552 1553 1554 1555 1555 1557 1558 1558 1558
1447 1448 1446 1459 1461 1469 1472 1466 1454 1445 1446 1451 1457 1463 1468 1473 1479 1484 1489 1493 1498 1502 1506 1510 1513 1517 1521 1525 1528 1531 1534 1537 1539 1541 1544 1545 1547 1548 1548 1549 1551 1552 1553 1554 1555 1556 1556 1557 1557
1437 1440 1447 1459 1474 1478 1478 1478 1471 1456 1451 1449 1454 1459 1465 1470 1476 1482 1487 1491 1496 1500 1505 1509 1512 1516 1520 1523 1526 1529 1532 1535 1537 1539 1542 1543 1545 1546 1547 1548 1549 1550 1551 1552 1553 1554 1555 1555 1556
1441 1442 1446 1450 1454 1469 1482 1481 1456 1452 1448 1448 1450 1455 1461 1467 1473 1479 1484 1489 1494 1499 1503 1507 1511 1514 1518 1521 1524 1528 1529 1532 1535 1537 1539 1541 1542 1544 1545 1546 1548 1549 1550 1551 1552 1553 1554 1554 1554
1437 1441 1444 1459 1460 1455 1463 1470 1446 1446 1446 1447 1448 1452 1458 1465 1471 1476 1482 1487 1492 1496 1501 1504 1508 1512 1515 1519 1522 1525 1527 1530 1532 1535 1537 1538 1540 1541 1543 1544 1546 1547 1548 1549 1550 1550 1552 1552 1553